This demonstration page uses our WeatherBlox Daily Observations layout. Learn more.

Left ArrowRight Arrow

Hourly Observations for June 1, 2017

Temp ( °F °C ) Dew Point ( °F °C ) Humidity (%) Winds ( mph kmh ) Pressure ( in mb ) Visibility ( mi km ) Precip ( " mm )
12:51 am 00:51 Clear 78 25.6 42 5.6 28 28 ENE 7 11 29.71 1006 10 16 N/A
1:51 am 01:51 Clear 78 25.6 42 5.6 28 28 E 12 19 29.71 1006 10 16 N/A
2:51 am 02:51 Clear 74 23.3 44 6.7 34 34 E 9 15 29.71 1006 10 16 N/A
3:51 am 03:51 Clear 74 23.3 44 6.7 34 34 E 12 19 29.72 1007 10 16 N/A
4:51 am 04:51 Clear 72 22.2 45 7.2 38 38 E 9 15 29.74 1007 10 16 N/A
5:51 am 05:51 Sunny 72 22.2 45 7.2 38 38 E 9 15 29.75 1008 10 16 N/A
6:51 am 06:51 Sunny 75 23.9 45 7.2 34 34 ESE 9 15 29.76 1008 10 16 N/A
7:51 am 07:51 Sunny 75 23.9 44 6.7 33 33 S 7 11 29.78 1008 10 16 N/A
8:51 am 08:51 Sunny 77 25 45 7.2 32 32 SSE 8 13 29.78 1009 10 16 N/A
9:51 am 09:51 Sunny 82 27.8 47 8.3 29 29 ESE 9 15 29.76 1008 10 16 N/A
10:51 am 10:51 Sunny 86 30 45 7.2 24 24 S 12 19 29.74 1007 10 16 N/A
11:51 am 11:51 Sunny 88 31.1 43 6.1 21 21 S 10 17 29.71 1006 10 16 N/A
12:51 pm 12:51 Sunny 90 32.2 44 6.7 20 20 SE 8 13 29.68 1005 10 16 N/A
1:51 pm 13:51 Sunny 91 32.8 42 5.6 18 18 SSW 8 13 29.65 1004 10 16 N/A
2:51 pm 14:51 Sunny 92 33.3 42 5.6 18 18 VRB 6 9 29.62 1003 10 16 N/A
3:51 pm 15:51 Mostly Cloudy with Light Rain 86 30 41 5 20 20 NE 24 39 29.61 1003 7 11 N/A
4:51 pm 16:51 Sunny 93 33.9 32 undefined 11 11 VRB 6 9 29.59 1002 10 16 N/A
5:51 pm 17:51 Sunny 91 32.8 39 3.9 16 16 ENE 16 26 29.60 1003 10 16 N/A
6:06 pm 18:06 Sunny 90 32 39 4 17 17 ENE 20 31 29.50 999 10 16 N/A
6:51 pm 18:51 Sunny 85 29.4 42 5.6 22 22 ENE 15 24 29.64 1004 10 16 N/A
7:51 pm 19:51 Clear 79 26.1 46 7.8 31 31 ENE 24 39 29.69 1005 10 16 N/A
8:51 pm 20:51 Clear 79 26.1 44 6.7 29 29 ENE 13 20 29.71 1006 10 16 N/A
9:51 pm 21:51 Clear 79 26.1 44 6.7 29 29 E 14 22 29.72 1006 10 16 N/A
10:51 pm 22:51 Clear 75 23.9 46 7.8 36 36 ESE 15 24 29.75 1007 10 16 N/A
11:51 pm 23:51 Clear 73 22.8 46 7.8 38 38 ESE 10 17 29.75 1008 10 16 N/A

Powered by AerisWeather